ECMWFFLT1_250_spd_021.txt.gz
Wind_Speed
115 116 117 118 119 121 122 123 124 124 124 123 123 123 123 124 124 123 122 121 121 120 119 118 117 116 115 115 116 116 117 117 117 117 117 116 116 115 114 113 113 112 111 110 109 108 108 107 107 106 106 106 105 104 103 102 101 101 100 100 100 100
122 122 123 123 124 125 126 127 128 129 129 129 128 127 127 127 127 128 127 126 126 125 124 123 123 122 121 120 119 120 121 121 121 121 121 121 121 120 119 118 118 117 117 116 115 114 113 112 112 111 110 110 110 109 108 107 106 105 105 105 105 104
127 127 128 128 129 129 130 132 132 132 132 132 131 131 130 130 130 131 131 131 130 129 128 127 127 127 126 125 124 123 124 125 125 125 124 124 124 124 124 123 122 122 121 120 119 119 118 117 117 116 115 115 114 114 113 112 111 110 109 109 109 109
131 131 132 133 134 135 136 136 135 135 134 133 133 132 133 133 134 134 134 134 134 133 132 131 131 130 130 129 128 127 127 127 128 128 128 128 128 127 127 127 126 126 125 125 124 123 123 122 122 121 120 119 119 118 117 117 116 114 113 113 112 112
135 135 136 137 139 141 142 140 138 136 135 134 133 133 134 135 135 136 137 137 137 136 135 134 134 133 133 132 132 131 131 131 131 131 131 131 131 131 131 131 130 130 129 129 128 127 127 126 126 125 124 124 123 122 121 121 120 118 118 117 116 116
138 139 140 141 143 144 143 140 137 135 134 132 132 132 133 134 135 136 137 138 139 138 137 137 136 135 135 134 134 133 133 133 133 134 134 134 134 134 134 134 134 134 133 132 131 131 130 130 129 129 128 127 127 126 125 125 124 122 121 120 120 120
140 141 141 141 141 139 136 134 132 131 130 130 130 130 131 132 134 135 136 137 138 139 139 138 138 137 136 136 135 135 135 135 135 136 136 137 137 137 137 137 137 137 137 136 135 135 134 134 133 133 132 132 131 130 130 128 127 127 126 124 124 123
137 137 135 134 132 129 127 126 125 124 125 125 126 127 128 129 130 131 133 134 135 136 137 137 137 137 136 136 135 135 134 134 135 135 136 137 138 139 139 139 139 140 140 140 140 139 139 138 137 137 136 136 136 136 135 134 133 132 131 130 129 128
128 127 126 124 122 120 119 118 118 118 118 119 121 122 124 125 126 127 128 129 130 131 132 133 133 134 134 134 133 133 132 132 132 133 134 135 136 137 137 138 139 139 140 141 141 141 141 141 140 140 140 140 141 141 140 140 140 139 139 139 138 137
121 120 118 117 116 115 114 113 112 112 113 114 115 117 119 121 122 123 124 125 125 126 127 128 128 129 129 129 129 129 129 129 129 129 130 130 132 133 133 134 135 136 136 137 138 139 139 139 139 139 140 140 141 142 142 142 142 142 141 141 140 139
118 117 116 115 114 113 112 111 110 109 109 110 111 113 115 116 118 120 121 122 123 123 124 124 125 125 125 125 125 125 125 125 126 126 126 127 128 129 130 130 131 132 132 133 134 135 135 135 135 135 135 136 136 137 137 137 137 136 136 135 134 133
117 116 115 114 113 112 111 111 111 110 109 109 109 110 111 113 114 116 118 119 120 121 122 122 123 123 123 123 123 123 123 123 123 123 124 125 125 126 127 128 128 129 129 130 130 131 131 131 132 132 132 131 132 132 132 131 131 130 129 129 128 128
115 114 113 113 112 111 111 110 110 110 109 109 108 109 109 110 111 112 114 116 117 119 120 120 121 121 122 122 123 123 123 122 122 122 122 123 123 124 125 125 126 127 127 127 128 128 128 128 129 129 129 128 128 127 127 127 126 126 124 123 123 122
111 111 111 110 110 110 109 109 109 109 108 108 108 108 108 108 109 110 111 113 114 116 117 118 119 119 121 122 122 123 123 123 123 122 122 122 122 122 122 123 124 125 125 126 126 126 127 127 127 127 127 127 126 125 124 124 123 123 122 121 120 119
110 109 109 108 108 108 107 107 106 106 106 106 106 106 106 107 107 108 109 110 111 112 113 114 116 117 119 121 122 122 122 123 123 123 122 122 122 121 121 121 122 123 124 124 124 125 126 126 127 127 127 126 125 124 123 122 121 121 121 120 119 118
109 108 108 107 107 107 107 106 105 104 104 104 104 104 104 105 105 106 107 108 108 109 110 111 112 114 116 118 120 121 121 122 122 122 122 122 122 122 121 120 120 121 122 122 122 122 123 124 126 127 128 127 126 125 123 122 120 120 119 119 119 119
109 108 108 108 108 108 107 106 105 104 103 103 102 102 102 103 103 103 104 105 105 106 107 108 110 111 113 115 117 118 119 120 121 122 122 122 122 122 121 121 120 119 120 120 120 120 120 121 123 125 127 127 126 125 123 121 120 119 118 118 118 118
109 109 109 109 109 109 108 107 106 104 103 103 102 102 101 101 101 101 102 102 102 103 104 106 107 107 109 111 113 114 116 117 119 120 121 121 121 121 121 121 120 120 119 119 119 119 118 118 120 123 124 125 126 125 123 121 119 118 117 117 117 117
108 108 108 109 109 109 109 107 105 104 103 102 102 102 101 101 101 100 100 101 101 101 102 103 104 104 105 107 109 111 112 114 115 116 118 119 119 119 120 120 120 120 120 120 120 119 118 117 119 121 122 122 123 124 123 121 118 117 116 116 116 117
104 105 106 107 108 108 108 106 104 103 102 101 101 101 100 100 99 99 98 99 99 99 100 101 102 102 103 105 107 108 109 111 112 113 115 116 116 116 117 118 119 119 119 120 120 120 119 118 118 120 121 121 121 121 121 120 119 117 115 115 116 116
101 101 102 104 105 105 105 104 102 101 100 100 100 99 99 98 97 96 96 96 96 96 97 98 99 100 101 103 105 107 107 108 109 111 113 114 114 114 115 116 116 116 117 117 118 119 119 119 118 119 121 122 122 121 119 118 118 116 115 115 116 116
98 98 99 100 101 101 101 100 99 98 98 98 98 97 97 96 95 94 94 93 93 93 94 96 97 98 99 100 101 103 104 105 106 108 110 112 113 113 114 115 115 115 114 115 115 116 117 117 117 118 120 121 122 122 120 117 116 115 115 116 116 116
95 95 96 96 97 96 96 95 95 95 95 95 94 94 93 92 92 91 91 90 90 91 93 95 96 96 97 97 98 99 100 101 103 104 106 108 110 110 112 113 114 114 114 114 114 114 114 115 115 117 118 120 121 122 122 119 115 114 114 116 117 116
92 92 92 93 93 92 91 91 91 91 91 91 91 90 89 89 88 88 88 88 89 90 92 93 94 94 94 94 94 95 96 97 98 100 101 103 104 106 107 109 110 112 112 112 113 114 114 114 114 115 117 118 119 120 121 121 118 114 113 114 115 116
89 89 90 91 91 90 89 89 88 88 89 89 88 88 87 86 86 86 87 88 89 90 91 92 93 93 93 92 92 92 93 93 95 97 98 98 99 100 101 103 105 107 108 108 109 111 112 113 114 114 115 116 118 119 120 120 119 117 115 114 113 114
86 86 88 89 89 89 88 87 87 86 87 88 87 86 85 85 85 86 87 88 89 90 90 91 91 91 92 91 91 91 91 91 93 94 95 96 96 96 97 98 100 101 102 103 104 105 107 110 112 114 114 115 116 118 118 118 117 118 118 116 113 113
85 85 87 88 89 88 87 87 86 86 86 87 86 85 85 85 86 87 88 88 89 89 90 90 90 91 91 91 91 91 90 90 91 92 93 94 95 95 95 95 97 98 98 99 99 99 101 104 107 110 112 113 115 116 117 117 115 115 116 117 115 113
85 85 85 86 88 87 86 86 86 86 86 86 85 85 85 85 86 86 87 88 89 89 90 89 89 90 90 91 91 91 90 90 91 91 92 93 93 93 93 93 94 95 96 96 96 97 97 99 101 104 106 109 112 114 115 116 115 113 113 113 113 113
84 84 85 85 86 86 86 86 87 86 85 84 84 84 84 84 84 85 86 87 87 87 87 87 86 87 88 89 89 89 89 89 89 89 89 90 91 91 91 91 91 92 92 93 94 95 95 95 97 99 100 104 107 110 112 114 114 113 110 109 109 110
84 84 84 84 84 85 86 86 86 86 84 83 83 83 83 82 83 82 82 83 83 83 83 83 82 83 84 84 85 85 85 86 87 86 86 87 88 88 88 88 88 88 88 88 89 91 91 92 93 95 98 101 104 105 107 110 112 111 110 108 106 107
83 83 84 84 84 84 85 85 85 85 83 82 82 81 81 80 80 80 80 80 80 80 79 79 79 79 79 80 80 81 82 83 83 83 83 83 84 83 83 84 85 85 85 84 84 85 86 86 88 92 95 98 100 102 104 106 108 110 109 107 105 104
82 82 83 83 83 83 83 83 83 83 82 81 80 80 79 79 78 78 79 78 78 78 77 77 77 77 77 77 77 78 79 80 80 80 80 80 81 80 79 79 80 82 82 81 80 81 81 81 84 88 90 93 95 98 101 103 105 107 108 107 105 103
81 81 81 81 80 80 80 80 80 79 78 78 78 78 77 76 75 76 77 77 76 76 75 75 75 75 75 75 75 76 77 77 78 77 76 76 77 77 77 77 77 78 78 77 77 77 78 78 81 83 85 86 89 93 96 99 102 103 105 106 105 102
79 79 78 78 77 77 77 77 76 75 75 76 76 75 75 74 74 74 75 75 74 74 74 74 73 72 72 73 74 74 74 74 75 75 75 73 73 73 74 75 74 74 74 74 74 75 76 77 78 79 80 81 83 87 90 94 98 100 101 103 104 100
77 76 76 76 75 75 75 74 73 73 73 74 73 73 73 73 72 73 73 72 72 72 72 72 71 70 70 71 72 73 73 72 72 72 73 73 72 71 71 72 72 72 71 70 71 71 73 75 76 76 76 77 79 82 85 88 92 95 97 99 100 97
74 74 74 74 74 74 73 72 71 71 71 72 71 71 70 71 71 72 71 70 70 69 69 69 69 68 68 68 69 69 70 70 70 69 70 71 71 70 69 69 69 69 68 68 68 68 70 72 72 72 72 73 75 78 81 84 87 89 92 94 95 93
72 73 73 73 73 72 71 70 70 70 70 70 70 69 68 68 69 69 69 69 68 67 66 66 65 65 65 65 66 66 66 67 67 67 67 67 68 69 68 67 65 65 65 65 66 66 67 68 68 68 69 70 72 75 78 80 81 84 87 89 90 89
71 71 72 72 71 70 69 69 69 69 69 68 68 67 66 65 66 66 66 66 66 65 64 63 62 61 61 62 62 63 63 64 64 64 64 64 64 65 66 66 64 62 61 62 63 64 65 65 64 64 65 66 69 72 75 77 78 80 83 85 86 86

ECMWFFLT1_250_spd_024.txt.gz
Wind_Speed
120 119 118 118 118 118 118 118 118 119 119 119 120 120 120 120 120 119 118 118 118 118 117 118 118 118 118 119 119 119 119 120 120 120 119 119 118 119 119 120 121 121 120 119 118 117 117 116 116 116 115 115 115 115 114 113 112 111 111 110 109 109
125 125 125 124 124 124 123 123 123 123 123 123 123 124 124 125 125 125 124 124 123 123 122 122 122 123 123 123 124 124 125 125 126 127 127 126 125 125 124 125 125 126 126 126 125 123 122 121 120 120 119 119 118 118 118 118 117 116 115 114 114 113
129 130 131 130 130 130 130 129 128 128 128 128 128 128 128 129 129 129 129 129 128 128 128 127 127 127 127 127 128 128 129 130 130 131 131 132 132 131 131 130 129 130 131 131 131 130 128 127 126 124 123 123 122 122 122 121 121 120 119 119 118 118
132 134 135 135 135 136 136 136 135 133 133 133 133 134 133 133 133 133 132 132 132 132 132 132 132 131 131 131 132 132 133 134 134 135 135 135 136 136 136 136 135 135 135 135 135 135 134 133 132 130 128 127 126 126 126 125 124 124 123 123 122 122
130 132 133 134 135 136 136 137 137 136 135 135 136 137 137 137 137 136 136 136 135 135 135 135 135 135 135 136 136 136 137 137 138 138 139 139 139 140 140 141 141 140 138 138 137 138 138 138 138 137 135 133 131 130 129 129 129 128 127 127 127 126
122 125 127 129 130 131 132 132 133 133 134 134 136 137 138 139 139 139 139 138 138 138 139 139 139 139 139 139 139 140 140 141 142 142 143 143 143 144 144 144 144 143 142 141 140 140 140 141 141 141 141 139 137 135 134 133 133 132 132 132 131 131
115 117 120 122 124 125 126 127 128 129 130 131 132 134 136 138 139 140 140 140 140 140 141 141 141 141 141 142 142 142 143 144 145 145 146 146 146 146 146 145 145 144 143 143 142 142 141 142 143 144 144 144 143 141 140 138 137 136 136 136 135 135
111 112 113 115 117 119 120 121 123 124 125 126 128 129 131 133 134 136 137 138 139 139 140 141 141 141 142 143 143 144 145 145 146 146 147 147 147 146 146 145 144 143 143 143 143 143 143 143 143 144 145 146 146 145 144 143 142 141 140 139 139 138
110 110 110 110 111 113 114 116 117 118 120 121 123 124 126 128 129 131 133 134 135 136 137 138 139 140 141 142 143 143 144 145 145 145 145 145 145 144 143 142 141 140 140 141 141 142 143 143 144 144 145 146 147 147 146 145 145 144 143 142 142 141
109 109 109 109 109 109 110 111 112 113 114 116 118 119 121 123 125 127 129 131 132 133 134 135 136 137 138 139 140 141 141 142 142 142 142 141 140 140 139 138 137 137 136 137 138 139 140 141 142 143 144 145 146 146 146 146 146 145 145 144 144 143
110 109 109 109 108 108 109 109 110 111 112 113 114 116 117 119 121 123 124 126 128 129 130 131 132 132 133 134 135 136 137 137 138 138 139 138 137 136 135 134 133 133 132 133 133 135 136 137 138 140 141 143 144 144 145 145 145 145 145 145 145 144
109 109 108 108 108 108 108 108 109 110 111 112 113 114 115 117 118 119 120 122 123 124 125 126 126 127 127 128 130 131 132 133 134 135 136 136 136 135 134 132 131 130 129 129 129 129 130 131 133 135 137 138 139 141 141 141 141 142 143 143 143 143
107 106 106 106 106 106 106 107 107 108 108 109 110 112 113 114 115 116 117 118 119 120 120 121 121 122 123 124 125 127 128 129 131 132 133 134 134 133 132 131 130 129 128 127 127 126 126 126 127 129 131 133 134 136 137 137 137 137 138 138 139 139
104 104 104 104 103 103 103 103 103 104 104 105 106 107 108 110 111 111 112 113 114 115 115 116 116 117 117 119 120 121 123 124 126 127 129 130 131 131 130 130 129 129 128 127 126 125 124 124 124 124 126 127 129 130 132 133 133 133 133 133 133 134
102 103 103 103 103 102 102 101 101 100 100 101 101 103 104 105 106 107 107 108 109 109 110 110 110 111 111 112 114 114 115 117 118 120 122 123 125 126 127 127 127 128 127 127 127 125 124 123 123 123 123 124 125 126 127 128 128 129 129 129 128 129
101 102 102 103 102 102 102 101 100 100 99 99 99 99 100 101 102 103 104 105 106 106 107 108 108 108 108 108 109 109 110 110 112 113 115 116 118 119 121 122 123 124 125 126 126 125 124 123 123 123 123 123 123 124 124 124 124 124 125 125 125 125
101 101 102 102 102 101 101 100 100 100 99 99 99 98 98 98 99 100 101 101 102 104 105 106 106 106 106 106 106 106 106 107 108 108 109 111 112 113 115 116 117 119 120 121 122 123 122 122 122 123 123 123 123 124 124 123 121 120 120 121 122 122
101 100 100 99 99 99 98 98 98 98 98 98 98 97 97 97 97 97 97 98 99 100 101 102 102 103 103 103 103 103 103 104 105 106 106 108 109 110 111 112 113 114 116 117 118 119 119 119 120 121 122 122 122 123 123 123 121 119 117 117 117 119
100 99 98 97 97 96 96 96 96 96 96 96 96 96 96 96 96 95 96 96 97 97 97 98 98 98 98 99 100 100 100 101 102 103 104 105 106 107 108 110 111 111 112 113 114 116 117 116 116 118 119 120 121 121 122 122 121 119 117 115 115 115
99 98 96 95 94 94 93 93 93 93 93 94 94 94 93 94 94 94 94 94 94 94 94 95 95 94 94 95 95 96 97 98 99 100 101 102 103 104 105 107 108 109 110 111 112 113 114 114 114 115 117 118 119 120 120 120 119 118 116 114 114 114
97 97 95 93 92 91 91 91 90 90 90 90 90 90 90 91 91 91 91 91 92 92 92 92 92 92 91 91 92 92 93 94 96 97 98 99 100 100 101 103 105 106 107 108 109 110 111 112 112 113 115 117 118 119 119 118 117 116 114 113 112 113
95 95 93 92 91 90 89 89 88 88 87 87 87 87 87 87 87 88 88 88 89 89 90 90 90 90 90 90 89 89 90 90 92 93 94 96 97 97 98 99 101 103 103 105 107 107 108 109 109 111 113 116 117 118 119 118 115 113 112 112 112 112
93 92 91 90 89 88 88 87 87 87 86 86 86 86 85 85 85 85 86 86 86 87 88 89 89 89 89 89 89 88 88 89 90 90 91 91 92 93 93 94 96 98 99 101 103 105 105 106 107 108 110 113 116 117 118 118 115 111 110 111 112 112
91 90 89 88 87 86 86 86 85 85 86 86 85 84 84 84 84 84 84 85 85 86 87 88 88 88 88 88 89 88 88 89 90 90 89 89 89 89 90 91 93 94 95 95 98 101 102 104 105 106 107 109 113 115 116 116 114 112 111 110 110 111
89 89 88 87 87 86 85 85 85 85 85 85 83 83 83 83 83 83 83 84 85 86 86 86 87 88 88 88 89 89 88 89 90 90 90 89 89 89 89 90 91 91 91 91 93 96 98 100 102 103 104 106 109 111 113 113 112 111 111 110 108 108
87 87 87 87 86 86 85 85 85 85 85 84 83 82 82 82 82 82 83 83 84 84 85 86 86 87 88 88 88 88 88 88 89 89 90 90 89 89 89 90 90 90 90 90 91 93 96 97 99 100 102 103 104 107 109 110 110 110 110 109 108 107
85 86 86 86 86 85 85 85 85 84 84 84 83 83 82 82 82 82 82 83 83 84 85 86 87 88 88 88 88 88 88 88 88 88 89 89 89 89 89 89 90 89 89 89 90 92 94 96 97 98 100 101 101 103 104 105 106 107 107 107 107 106
84 84 85 85 86 85 85 85 84 83 83 83 83 83 82 82 81 81 82 82 83 84 85 85 86 87 88 88 88 88 87 87 88 88 89 89 88 88 88 88 88 88 88 88 89 91 93 94 95 96 98 99 99 100 101 101 102 102 103 104 104 104
83 83 84 84 85 84 84 84 83 83 82 82 82 82 81 81 80 80 80 81 82 83 83 83 84 85 86 86 86 86 86 86 87 86 87 87 86 86 86 86 85 86 86 86 87 89 90 92 93 94 96 97 98 98 98 98 98 99 100 101 101 101
82 82 82 83 83 83 83 83 83 82 81 80 81 81 80 80 80 79 80 81 81 81 81 81 82 82 82 83 83 83 83 84 84 83 83 83 83 82 82 82 82 82 82 82 83 85 86 88 89 90 91 93 94 95 95 95 95 96 97 97 98 98
80 81 81 81 81 81 82 82 82 81 80 80 80 80 80 80 79 80 80 80 80 80 79 79 79 79 79 79 80 80 80 80 80 79 79 79 79 78 77 77 77 78 78 78 80 81 82 84 85 86 86 88 89 90 91 91 91 92 93 94 95 96
79 80 80 80 80 80 81 81 80 79 79 79 80 80 79 78 78 78 79 78 77 77 76 76 76 76 76 77 77 78 78 78 78 77 77 77 76 76 75 74 74 75 75 75 77 78 79 80 82 83 83 83 85 85 86 86 87 87 88 90 92 92
78 78 78 78 78 78 79 78 77 76 76 77 77 77 77 76 75 75 75 74 74 74 74 74 74 74 74 75 75 75 76 77 77 76 75 75 74 74 73 72 71 71 72 72 74 75 76 77 78 79 80 80 81 81 82 83 83 84 84 85 86 87
76 75 75 75 75 75 75 74 73 72 73 74 74 74 74 73 72 72 72 71 71 71 72 72 72 73 73 73 74 74 74 75 75 76 76 74 73 72 72 71 70 69 69 70 71 72 74 75 76 76 76 76 77 78 79 79 80 80 81 81 81 80
74 74 73 73 73 72 72 71 70 70 71 72 72 72 71 71 70 70 69 69 68 69 70 70 71 71 71 71 72 72 72 73 73 74 74 74 73 72 70 69 68 67 67 68 68 69 71 72 73 73 73 73 74 75 76 76 77 77 78 78 77 76
72 72 71 71 71 71 70 69 69 70 70 70 70 70 69 69 69 68 68 67 67 67 68 69 69 69 69 70 70 70 70 70 70 70 71 72 73 73 71 69 67 66 65 66 67 68 68 69 69 70 70 70 70 71 72 73 74 74 75 74 74 74
71 71 70 70 70 69 69 69 69 69 69 69 68 68 68 68 68 67 67 67 66 66 66 66 67 67 67 67 68 68 68 68 68 68 68 68 69 70 71 70 67 65 63 63 64 66 66 66 67 67 67 67 68 68 68 69 70 71 72 72 72 72
70 69 69 70 69 68 69 69 68 67 67 68 67 67 67 67 66 66 66 66 65 65 65 64 64 64 64 65 65 65 66 66 66 66 65 65 66 66 68 68 67 66 63 61 61 62 64 64 65 65 65 65 65 65 66 67 67 68 69 69 69 70

ECMWFFLT1_250_spd_030.txt.gz
Wind_Speed
121 121 120 119 118 117 116 115 114 113 112 112 111 111 111 111 111 111 111 112 113 114 115 116 117 119 122 124 127 129 131 132 133 133 133 132 132 132 133 133 133 133 133 132 132 132 132 132 131 130 129 127 126 125 124 124 123 122 121 121 120 119
123 122 121 120 119 117 116 115 113 112 111 111 110 110 109 109 109 109 109 110 110 111 112 113 114 115 117 120 123 126 128 130 132 133 134 135 135 135 135 135 135 136 136 137 137 136 136 136 136 136 136 135 134 133 131 130 129 127 126 126 125 124
124 123 122 120 119 117 116 115 114 112 112 111 110 110 109 108 108 108 108 108 109 109 110 111 112 113 115 116 118 121 124 126 129 131 132 134 136 136 137 137 137 138 138 139 140 141 140 140 140 140 140 140 140 139 138 137 136 134 133 131 130 129
124 123 121 120 119 117 116 115 114 113 112 111 110 109 108 107 107 107 107 107 108 108 109 110 111 112 113 115 116 118 120 122 124 126 128 130 133 134 136 137 138 139 139 140 141 142 143 144 144 144 143 143 143 143 143 142 141 141 140 138 137 135
124 123 121 120 119 117 116 115 114 113 112 111 110 109 108 107 107 107 107 107 107 108 109 110 111 112 113 114 115 116 117 119 120 122 124 126 128 130 132 134 135 137 138 139 140 142 143 144 146 147 147 146 146 146 146 146 146 145 144 143 143 142
124 123 121 120 118 117 116 115 114 113 111 110 109 108 108 107 107 107 107 107 107 108 109 110 111 112 113 114 115 115 117 118 119 120 121 122 124 126 127 129 131 132 134 136 137 139 141 143 144 146 148 150 150 150 149 149 149 149 148 147 147 146
124 122 121 119 118 116 115 114 113 112 111 110 109 108 107 107 106 106 106 106 107 108 108 109 110 111 112 113 114 115 116 117 118 119 120 121 122 123 125 126 127 128 129 131 133 135 137 139 141 143 145 148 150 152 153 153 153 152 151 151 150 150
123 122 120 119 117 116 115 114 112 111 110 109 108 107 106 106 105 105 105 105 105 106 107 108 109 110 111 112 113 114 115 116 117 118 119 120 121 122 123 124 125 126 127 128 129 131 132 134 136 138 140 143 146 149 151 153 155 156 155 154 154 153
122 121 120 119 118 117 115 113 111 110 108 107 106 105 104 103 103 102 102 102 103 103 104 105 106 107 108 109 111 112 113 114 116 117 118 119 120 121 123 124 125 126 127 127 128 129 130 131 132 134 136 138 140 142 145 147 150 152 155 157 157 157
121 121 120 119 118 116 114 112 110 108 106 104 103 102 101 101 100 100 100 100 100 100 100 101 102 103 104 106 107 108 110 111 113 114 116 117 119 120 121 122 124 125 126 127 127 128 129 129 130 131 133 134 135 136 138 139 141 144 147 150 153 156
121 120 119 118 116 114 111 109 107 105 103 102 101 100 99 99 99 98 98 98 97 97 97 98 99 100 101 102 103 105 106 107 109 110 112 114 115 117 118 120 121 122 124 125 126 127 128 128 129 130 131 132 132 133 133 134 134 136 137 139 142 146
121 120 118 115 113 110 108 106 104 103 101 101 100 99 98 97 97 97 96 96 96 95 95 95 96 97 98 99 100 102 103 104 105 106 108 109 111 112 114 115 117 118 119 120 122 123 124 126 127 129 130 131 131 131 131 130 130 130 130 131 133 135
119 117 114 111 109 107 105 103 102 100 99 98 98 97 96 95 95 95 95 95 94 94 95 95 95 96 97 98 99 100 100 101 103 104 105 106 107 108 109 110 112 113 114 116 116 118 119 121 123 125 127 128 129 129 128 128 127 127 127 127 127 128
114 112 109 107 106 104 103 101 100 98 97 96 95 95 94 94 93 93 93 93 93 94 94 94 95 95 96 97 97 98 99 100 101 102 103 104 105 106 107 108 108 109 111 112 112 113 114 116 118 120 122 123 124 125 125 124 124 124 125 125 126 126
109 107 106 105 104 102 101 100 99 98 97 96 95 94 93 93 93 93 93 93 93 93 93 93 94 94 94 95 96 96 97 98 99 99 100 101 102 103 104 105 106 107 108 109 110 110 111 112 115 117 118 118 119 120 121 120 119 119 120 121 122 123
105 104 103 102 101 101 100 99 99 98 97 96 95 94 93 92 92 92 92 92 92 92 92 92 92 92 93 93 94 94 95 96 96 96 97 97 97 98 99 100 102 103 105 106 107 107 108 110 113 114 115 115 116 116 116 115 114 114 115 116 117 119
103 102 101 101 100 100 99 98 98 98 97 96 95 94 93 92 91 91 91 91 91 91 91 91 91 91 91 92 92 93 93 94 94 94 94 95 95 96 96 97 98 99 100 101 102 102 103 106 109 111 112 113 113 113 112 111 111 111 111 112 114 116
102 101 101 100 100 99 99 98 98 97 97 96 94 93 92 91 91 91 91 91 91 91 91 91 90 91 91 91 91 92 92 92 92 92 93 93 94 94 95 95 96 97 97 98 98 99 99 101 105 106 106 107 109 110 110 110 110 109 109 110 111 112
101 101 100 100 99 99 99 98 97 97 96 95 94 93 92 92 91 91 91 91 90 90 90 90 90 90 91 91 91 91 91 91 92 92 92 92 92 93 94 94 95 95 95 95 96 97 97 99 101 102 101 102 104 105 106 107 108 108 108 108 109 110
101 100 99 99 99 98 98 97 96 96 95 94 93 93 92 92 91 91 91 90 90 90 89 89 89 90 90 90 90 90 90 91 91 91 91 91 91 92 93 93 93 93 94 94 95 97 97 97 98 99 99 100 101 101 101 102 103 104 105 105 107 108
100 99 99 98 98 97 97 96 96 95 95 94 93 92 91 91 91 91 91 90 90 89 89 88 89 89 89 89 89 89 90 90 90 90 90 90 90 91 91 91 91 91 93 94 95 96 95 95 96 97 97 98 99 98 98 98 98 99 100 101 102 104
98 98 97 97 97 96 96 95 95 94 94 93 92 92 91 91 91 90 90 90 89 88 88 88 88 88 88 88 88 88 89 89 89 89 90 90 90 89 89 90 90 90 92 94 95 95 94 94 95 96 96 97 97 96 96 96 96 96 96 97 97 98
96 96 96 96 96 95 95 95 94 94 93 93 92 91 91 90 90 89 89 88 87 86 86 86 86 86 86 86 86 86 87 87 87 87 88 88 88 87 87 88 88 89 91 93 94 94 93 93 94 94 95 96 95 95 94 94 94 94 93 94 94 95
95 95 95 95 95 95 95 94 93 93 92 91 91 90 90 89 88 88 87 86 86 85 85 84 84 84 84 84 84 84 84 85 85 85 85 85 84 84 84 85 86 87 88 91 92 92 92 92 92 93 94 94 94 93 93 93 93 92 92 92 92 93
95 94 94 94 94 94 93 93 92 91 90 89 89 88 88 87 87 87 86 85 85 84 84 84 84 84 83 83 83 83 83 84 84 83 83 83 82 81 82 83 84 85 86 88 89 90 90 90 90 91 91 92 92 92 92 92 92 92 91 90 90 91
94 93 92 92 92 92 92 91 90 88 87 87 86 86 86 86 86 86 85 85 84 84 83 83 83 83 82 82 81 82 82 82 82 82 82 81 80 80 81 82 83 84 85 86 87 88 89 88 88 88 89 89 89 90 90 91 91 91 90 89 88 89
92 91 91 91 91 90 90 89 87 86 85 84 84 84 84 85 85 85 84 84 83 82 82 82 82 81 80 80 80 80 80 80 80 79 79 78 78 78 79 80 82 83 84 85 86 87 88 88 87 87 86 86 86 87 88 88 88 88 88 87 87 87
89 89 89 89 88 88 88 87 85 83 83 83 84 84 84 84 84 83 83 82 81 80 80 80 79 78 78 78 78 78 78 77 76 76 76 75 75 75 76 77 78 80 80 82 83 84 85 86 86 85 84 84 84 84 85 85 86 86 86 85 85 85
87 87 87 86 86 85 85 84 82 82 82 83 83 83 83 83 82 82 81 80 79 78 78 77 77 76 76 76 76 76 76 75 74 73 73 73 72 72 73 73 75 76 76 77 79 80 81 82 82 81 81 80 81 81 82 82 83 83 83 83 83 83
85 85 85 84 83 83 82 82 81 81 81 81 81 80 80 80 80 80 80 79 78 77 77 76 75 75 75 76 76 76 75 74 73 72 71 71 70 69 70 71 72 73 73 74 75 76 77 78 78 77 76 76 76 77 77 78 78 78 79 79 79 79
84 84 83 82 81 81 81 80 80 79 79 79 78 78 78 78 78 78 78 78 77 76 76 76 75 75 75 75 75 75 74 74 73 71 70 70 69 68 67 68 69 71 72 72 73 73 74 75 75 74 73 72 73 73 73 74 74 74 74 74 75 75
83 82 82 81 80 79 79 79 78 77 77 77 76 76 76 76 76 77 77 77 76 76 76 76 75 75 74 74 74 74 74 74 73 71 69 69 69 68 66 66 67 69 70 71 71 72 72 72 72 72 71 71 71 71 71 71 71 71 71 70 71 73
83 82 81 80 79 78 78 77 76 75 75 75 74 74 74 74 74 75 75 75 75 75 75 75 74 74 74 73 72 72 72 73 73 72 69 68 67 68 67 66 66 67 68 69 69 70 71 71 70 69 69 69 69 69 69 69 69 69 68 67 68 70
82 81 80 80 79 78 78 76 75 75 75 75 74 74 74 73 73 73 73 73 73 74 74 73 73 72 72 72 71 70 70 70 72 73 72 69 67 66 65 65 65 66 67 67 67 68 68 69 69 68 67 68 68 68 68 68 68 68 66 65 66 67
82 81 81 80 78 78 77 76 75 75 75 74 73 73 73 72 71 71 71 71 71 72 72 72 71 71 70 69 69 69 69 68 68 70 72 72 69 66 64 63 63 64 66 67 67 66 66 66 66 66 65 66 66 66 66 66 67 67 65 63 65 66
82 82 80 79 78 77 77 75 74 74 74 73 73 72 71 71 70 70 70 69 69 69 70 70 69 69 68 67 67 67 67 67 66 67 68 70 70 69 67 64 62 61 62 64 65 65 64 63 63 63 63 63 64 65 64 64 65 65 64 62 62 64
82 81 79 78 77 76 76 74 74 74 73 73 72 71 71 70 69 69 69 68 67 67 68 68 68 67 66 66 65 65 64 65 65 65 65 65 66 67 67 66 64 61 60 60 61 62 62 61 60 60 60 60 61 62 63 62 62 63 62 61 61 62
80 79 78 76 76 76 75 74 74 74 73 72 72 71 70 69 69 69 68 67 66 66 66 66 66 65 65 64 64 63 63 63 63 63 63 63 63 63 64 64 63 62 61 60 58 58 59 58 58 58 58 58 58 59 60 60 60 60 60 59 59 60

ECMWFFLT1_250_spd_033.txt.gz
Wind_Speed
123 120 119 118 117 116 116 115 115 114 113 113 112 112 111 111 111 111 111 111 111 111 111 111 111 110 110 111 111 111 112 113 113 114 115 116 117 118 120 121 123 125 127 129 131 134 136 138 139 140 141 141 141 141 140 139 139 138 138 138 137 136
124 122 121 120 119 118 117 117 115 115 114 113 112 112 112 112 111 111 111 111 111 110 110 110 110 109 109 109 110 110 111 112 113 114 115 116 116 117 118 119 121 122 124 126 128 130 132 135 137 140 142 143 144 145 145 144 143 142 141 141 141 141
125 124 123 122 121 120 118 117 116 115 115 114 113 113 112 112 112 112 112 111 111 111 111 111 110 110 110 110 110 110 111 112 112 113 114 115 116 117 117 118 119 120 121 123 125 127 129 131 134 136 139 141 144 146 147 147 147 147 146 145 144 144
127 127 126 124 122 120 118 117 116 116 115 115 114 114 114 113 112 112 112 112 112 112 112 111 111 111 111 111 111 111 112 112 112 113 114 114 115 116 117 117 118 119 119 121 122 123 125 127 129 132 134 137 139 142 144 146 148 149 149 149 148 147
130 128 126 123 121 119 118 117 116 116 116 115 115 115 114 114 113 113 112 112 112 112 112 112 111 111 111 111 111 111 112 111 112 112 112 113 114 114 115 116 117 117 118 119 120 121 122 124 125 127 128 130 132 135 138 141 143 146 148 149 150 150
130 127 125 122 120 119 118 117 117 117 116 116 115 115 114 113 113 113 113 113 112 112 112 112 111 111 111 111 111 110 110 110 110 110 110 111 111 112 113 114 115 116 117 118 119 120 121 122 123 124 124 125 126 128 129 132 135 137 140 144 147 149
129 127 124 122 121 120 119 118 118 117 116 115 115 115 114 114 113 113 112 112 112 111 110 109 109 108 108 107 107 106 106 106 106 106 107 107 108 109 110 111 112 113 114 115 117 118 119 121 122 122 122 123 123 124 124 125 127 129 131 133 137 141
129 126 124 123 122 120 119 119 118 117 116 116 116 115 115 114 113 112 112 111 109 108 106 105 103 102 102 101 101 101 101 101 101 102 102 103 104 105 106 107 108 110 111 112 113 115 116 118 119 120 121 122 122 123 123 123 123 124 125 126 128 130
128 126 124 123 121 120 119 119 118 118 117 117 116 115 115 114 113 111 109 107 105 103 101 99 98 98 97 97 97 97 97 97 98 98 99 100 101 102 103 104 105 106 108 109 110 111 113 114 116 117 118 119 120 121 122 122 122 122 122 123 124 125
127 125 123 122 121 120 119 119 118 118 117 116 115 114 113 111 109 107 104 102 100 98 97 96 96 96 95 95 95 95 95 95 96 96 97 98 99 100 100 101 102 104 105 106 107 108 110 111 112 113 115 116 117 118 119 120 120 121 121 122 123 123
126 124 122 121 120 120 119 119 118 117 116 115 113 111 109 106 103 101 99 97 96 95 95 95 95 95 94 94 94 94 94 94 95 95 96 97 97 98 99 100 101 102 103 104 106 107 108 109 110 111 112 113 114 115 115 116 117 118 119 119 120 122
124 122 121 121 121 120 119 118 116 114 112 110 108 105 102 100 98 96 95 95 94 94 94 94 94 94 94 94 94 94 94 94 94 95 95 96 97 98 98 99 100 101 102 102 104 105 106 107 108 109 110 110 111 112 112 112 113 114 115 116 117 118
124 123 122 122 121 119 118 116 113 110 107 104 102 99 97 96 95 95 94 94 94 94 94 93 93 93 93 93 93 93 94 94 94 94 95 95 96 97 97 98 99 99 100 100 101 102 104 105 106 107 107 108 109 109 109 109 109 110 111 112 113 114
124 124 123 121 120 117 115 112 108 105 102 100 98 97 95 95 95 95 94 94 94 94 93 93 93 93 93 93 93 93 93 93 93 93 93 94 94 95 95 96 97 97 97 98 99 100 101 102 103 105 105 106 107 107 106 105 105 106 107 109 110 111
124 123 121 119 116 113 109 106 104 101 100 98 97 96 95 95 95 95 95 94 94 93 93 92 92 92 92 92 91 91 91 91 91 91 91 91 92 92 93 94 94 95 95 96 96 97 98 99 100 102 103 103 104 104 103 102 102 102 104 105 106 107
122 120 117 113 110 107 104 102 101 99 98 98 97 96 96 96 95 95 94 93 93 92 91 91 90 90 89 89 89 89 89 89 89 89 89 89 89 90 91 91 92 92 93 94 94 94 95 97 98 99 100 100 100 100 100 100 100 100 101 102 103 104
117 114 111 108 105 103 102 100 99 98 98 97 97 96 96 96 95 94 93 93 91 90 90 89 88 88 88 88 88 88 88 88 89 89 88 88 88 89 89 90 90 91 92 92 92 92 93 94 96 96 96 96 97 97 97 97 97 98 98 99 101 102
111 109 107 105 104 102 101 100 99 98 97 97 96 96 96 95 95 94 93 92 91 90 89 88 88 88 88 88 88 89 89 89 89 89 88 88 89 89 89 90 90 90 91 91 91 91 91 93 93 93 93 94 94 94 94 94 94 94 96 97 99 100
107 106 105 104 103 102 101 99 98 97 97 96 96 96 96 95 95 94 93 92 92 91 90 89 89 89 89 89 89 89 89 89 88 88 88 88 89 89 89 90 90 90 91 91 92 91 91 91 92 92 92 92 92 91 90 90 91 91 93 95 97 97
106 105 104 103 102 101 99 98 97 97 96 96 96 96 96 96 96 95 95 94 93 91 90 89 89 88 88 88 88 88 88 88 88 88 88 88 88 89 89 89 89 90 91 91 91 91 90 90 91 91 91 91 90 88 87 87 88 89 90 92 93 95
105 105 103 102 101 99 99 98 97 97 96 96 96 95 96 96 96 95 95 93 92 90 89 89 89 88 88 88 88 88 88 88 88 88 88 88 88 88 89 89 89 90 91 91 91 90 89 89 90 91 90 89 87 86 85 85 85 86 88 89 90 92
105 104 103 101 100 99 98 97 96 96 95 95 94 95 95 95 95 94 94 92 91 90 89 89 89 89 89 89 89 89 88 88 87 87 87 87 86 86 87 88 88 88 90 90 90 89 89 88 89 90 89 87 85 84 83 83 83 84 85 86 87 89
104 103 102 101 99 98 97 96 95 94 94 94 94 95 95 95 95 94 93 92 90 90 90 90 90 90 89 89 88 88 87 87 86 85 85 85 85 85 85 86 86 86 87 88 88 87 87 88 88 89 88 86 84 83 82 82 82 82 82 83 85 86
104 103 101 99 98 97 96 95 94 94 94 94 94 95 95 95 94 94 93 92 90 90 90 90 90 89 88 88 87 87 87 86 85 85 85 84 83 83 84 84 84 84 84 85 85 84 85 85 86 86 86 84 82 81 81 81 81 81 81 81 83 83
104 102 100 98 96 96 96 95 94 94 94 94 94 94 94 94 94 93 92 91 89 89 89 89 88 88 87 87 86 86 86 86 85 84 83 82 81 81 81 81 81 80 80 81 81 82 82 83 83 83 82 81 80 79 79 79 79 79 79 80 81 81
103 101 100 98 96 96 96 95 94 94 93 93 93 93 93 93 93 92 90 89 88 88 88 87 87 87 86 86 86 85 85 84 83 81 81 80 78 77 78 78 78 77 77 78 79 80 81 81 80 80 79 77 76 77 77 77 77 77 77 77 78 79
102 101 100 98 97 96 95 94 94 93 93 92 92 92 92 92 91 90 89 88 87 87 86 86 86 86 85 85 84 83 82 81 80 79 78 77 75 75 75 75 74 74 74 75 76 78 79 79 79 78 76 75 74 74 74 74 75 75 75 75 76 77
101 100 98 97 95 94 94 93 93 92 92 91 91 91 91 90 89 89 88 87 86 86 85 85 85 85 84 83 82 81 80 79 78 77 76 75 74 74 74 73 71 71 72 73 75 76 77 78 77 76 74 73 72 72 73 73 72 72 72 72 73 74
98 97 96 94 93 92 92 91 90 90 90 89 89 89 89 88 88 87 87 86 85 85 84 84 84 83 82 81 80 79 78 78 77 76 76 75 74 73 73 71 71 71 70 71 74 75 76 77 76 75 74 73 72 72 72 72 71 70 69 69 70 70
95 94 93 92 91 90 89 89 88 88 88 87 87 87 87 87 86 85 85 84 83 83 83 83 82 81 80 79 78 78 77 77 76 76 75 75 73 72 71 71 70 70 70 71 72 74 75 76 75 74 73 72 72 71 70 70 70 70 68 68 68 68
92 91 90 89 88 88 87 87 86 86 86 85 84 84 84 84 84 83 83 82 82 82 81 81 80 79 78 77 77 76 76 76 75 75 74 74 73 71 70 70 70 70 69 70 71 72 73 74 74 73 72 71 71 70 69 69 69 69 68 67 67 67
89 88 87 87 86 86 86 86 85 84 83 83 82 82 82 82 81 81 81 81 80 80 80 79 78 77 76 75 75 75 75 75 75 74 73 73 73 71 69 69 69 69 69 69 70 70 71 72 72 72 71 70 70 69 68 67 67 67 67 66 66 66
86 86 86 85 85 85 85 85 84 83 82 81 80 80 80 80 80 80 80 79 78 78 77 77 76 75 74 74 74 73 74 74 76 76 74 72 71 71 70 69 69 68 68 68 69 69 70 70 70 70 69 69 69 68 68 67 66 65 65 65 65 66
85 85 85 85 85 85 85 84 83 81 80 80 79 79 79 79 80 80 79 78 77 76 76 75 74 73 73 73 73 73 72 73 74 76 77 75 71 68 67 68 69 68 68 67 67 68 68 69 69 69 68 68 67 67 67 67 66 65 65 65 65 65
84 84 83 83 83 84 84 83 82 80 80 79 79 79 79 79 79 78 77 76 76 75 75 74 73 72 71 71 72 72 72 72 72 73 76 78 75 70 65 64 64 66 67 67 66 65 66 66 67 67 67 66 66 66 66 66 66 65 64 65 65 65
83 82 82 82 82 83 83 83 81 79 79 79 79 79 79 79 78 77 77 76 76 75 75 74 72 72 71 71 71 72 72 72 71 71 73 75 77 74 70 64 60 60 62 65 66 66 65 64 64 64 64 64 64 64 64 64 65 65 64 64 64 65
81 80 79 80 80 82 82 82 80 79 80 80 79 78 78 77 77 77 77 76 76 75 75 74 73 72 71 71 72 72 72 71 70 70 70 72 73 74 73 69 64 59 58 59 62 64 64 63 62 62 61 62 62 62 62 63 64 65 65 64 64 64
80 79 78 78 79 80 81 80 79 79 79 79 78 77 77 76 77 77 76 76 75 74 74 73 73 72 72 72 72 72 72 71 69 68 69 71 71 70 70 70 67 64 60 58 59 60 61 60 60 59 58 59 59 59 60 60 61 62 63 64 64 64